Location: Fisheating Creek Campgrounds
(26.9333°N, 81.3167°W)
Time: 07:37:27
(UTC-04:00)

Daily predictions for brighter satellites

Satellite Brightness Start Highest point End
(mag) Time Altitude Azimuth Time Altitude Azimuth Time Altitude Azimuth
H-2A R/B 2.3 20:32:08 10° W 20:34:46 83° N 20:44:34 10° E
In-Cosmos 22 Rocket 4.3 20:33:19 10° S 20:39:08 84° E 20:44:58 10° N
Cosmos 389 Rocket 2.8 20:36:50 10° NNW 20:40:18 70° W 20:43:46 10° S
USA 186 3.2 20:39:28 10° ESE 20:41:46 20° ENE 20:44:10 10° NNE
Meteosat 1 Rocket2 3.8 20:39:06 10° W 20:43:56 82° N 20:51:22 10° E
OAO 3 Rocket 3.6 20:40:46 10° SW 20:45:30 45° SSE 20:50:13 10° ENE
NOSS 2-2 (C) 4.4 20:41:44 10° SW 20:45:40 51° WNW 20:49:51 10° NNE
DELTA 2 R/B(2) 2.7 20:44:04 10° WNW 20:46:03 80° SSW 20:47:30 11° SE
Meteor 1-26 Rocket 4.3 20:42:47 10° N 20:48:41 75° E 20:54:33 10° SSE
Resurs 01 Rocket 2.5 20:46:03 10° S 20:50:20 52° W 20:54:38 10° NNW
Cosmos 1340 Rocket 3.2 20:53:15 10° SSW 20:57:11 67° W 21:01:11 10° N
Cosmos 1356 Rocket 3.4 20:56:24 10° S 21:00:35 81° E 21:04:51 10° N
SL-27 R/B 4.4 20:58:38 10° NNE 21:00:48 15° ENE 21:02:10 13° E
Cosmos 1892 2.6 20:57:04 10° S 21:00:51 73° E 21:04:41 10° N
USA 215 4.1 20:57:21 10° SSE 21:03:35 47° SW 21:09:51 10° NW
CZ-4B DEB 3.9 21:05:01 10° S 21:08:09 44° W 21:11:18 10° NNW
SEDSat Delta rocket 3.1 21:06:11 10° SW 21:10:36 51° SSE 21:14:03 14° E
H-2A R/B 2.6 21:07:53 10° SSE 21:11:34 74° ENE 21:15:16 10° N
CZ-4 DEB 3.7 21:10:23 20° ESE 21:11:54 30° ENE 21:14:44 10° NNE
Cosmos 1782 4.0 21:09:49 10° NNE 21:13:13 26° E 21:14:50 20° ESE
Atlas Centaur 2 1.7 21:11:50 10° WNW 21:15:23 48° N 21:18:09 15° ENE
ERBS 3.4 21:13:02 10° NNW 21:16:09 30° NE 21:17:39 21° E
Coronas F rocket 2.4 21:14:06 10° SSW 21:16:38 44° W 21:19:11 10° N
Abrixas rocket 2.3 21:14:33 10° NW 21:17:57 76° SW 21:19:51 24° SE
Cosmos 1939 Rocket 4.2 21:17:49 19° E 21:18:48 21° ENE 21:21:45 10° NNE
Cosmos 2084 3.3 21:21:43 10° SSW 21:25:38 75° WNW 21:29:28 10° NNE
ERS-1 Rocket 3.4 21:22:38 20° SE 21:25:43 43° ENE 21:30:27 10° N
Cosmos 1908 Rocket 3.9 21:22:56 17° SSE 21:26:00 42° E 21:30:09 10° NNE
Cosmos 1733 Rocket 3.4 21:23:40 10° SSW 21:28:03 66° W 21:32:25 10° N
CZ-3A R/B 3.6 21:02:30 10° W 21:30:01 72° SSW 21:33:02 25° ESE
ATLAS 5 CENTAUR R/B 2.6 21:24:56 10° NNW 21:31:06 64° ENE 21:35:09 24° SE
Cosmos 407 Rocket 4.2 21:28:11 10° N 21:33:04 37° ENE 21:35:06 27° ESE
Meteor 2-6 Rocket 4.5 21:28:17 10° N 21:34:02 54° E 21:37:29 23° SSE
Cosmos 1452 Rocket 3.4 21:30:35 10° S 21:35:50 81° ESE 21:41:07 10° NNE
Cosmos 2154 Rocket 4.0 21:32:31 10° S 21:38:39 61° E 21:44:44 10° NNE
deb Chang Zheng 4 3.5 21:36:31 10° NNE 21:40:56 71° ESE 21:44:46 14° S
Cosmos 1408 2.8 21:43:50 46° E 21:43:53 46° E 21:47:23 10° NNE
USA 234 4.0 21:39:05 10° ENE 21:47:38 20° SSE 21:49:57 10° S
COSMOS 2406 3.2 21:39:44 10° NNW 21:45:29 89° ENE 21:48:47 26° SSE
YAOGAN 11 4.1 21:43:16 25° S 21:45:55 86° WSW 21:50:28 10° NNW
Cosmos 2278 Rocket 2.1 21:40:23 10° SSW 21:46:03 83° ESE 21:51:44 10° NNE
ALOS 3.8 21:42:05 10° SSW 21:46:19 34° W 21:50:34 10° NNW
FALCON 9 R/B 4.4 20:55:45 10° WNW 21:46:32 84° SSW 21:54:16 28° ESE
Nimbus 7 Rocket 4.3 21:40:41 10° NNE 21:46:37 69° ESE 21:52:35 10° S
Cosmos 1190 Rocket 3.9 21:42:34 10° N 21:47:44 69° ENE 21:49:53 35° SSE
Cosmos 1825 2.2 21:47:48 53° ESE 21:48:11 56° E 21:51:56 10° NNE
SJ-11-01 4.2 21:46:17 29° SSE 21:48:44 83° ENE 21:53:29 10° N
Cosmos 1844 Rocket 4.1 21:43:59 10° SW 21:49:13 39° WNW 21:54:29 10° N
Cosmos 1844 4.5 21:45:23 10° SW 21:50:57 54° WNW 21:56:37 10° N
H-2A R/B 2.2 21:55:26 50° ESE 21:55:59 54° ENE 22:00:09 10° N
Cosmos 1184 Rocket 3.7 21:59:22 38° NNE 21:59:22 38° NNE 22:01:36 10° NNE
CENTAUR R/B 3.5 21:59:40 10° NW 22:07:37 59° WSW 22:12:56 23° S
Cosmos 2082 Rocket 4.1 22:10:20 10° NNE 22:13:01 14° ENE 22:13:01 14° ENE
ISS 0.4 22:13:11 10° NW 22:13:33 10° NW 22:13:56 10° NNW
EO 1 Delta rocket 4.4 22:09:12 10° N 22:14:42 63° WNW 22:17:43 22° SSW
Cosmos 1862 4.3 22:14:21 28° SW 22:16:05 45° W 22:20:00 10° N
SPOT 5 3.0 22:15:47 62° ESE 22:16:21 68° ENE 22:21:40 10° N
Centaur D-1A AC-32 2.3 22:12:36 10° W 22:16:50 56° SW 22:16:50 56° SW
Cosmos 676 Rocket 3.8 22:13:10 10° NNW 22:18:23 79° ENE 22:18:53 71° SE
Cosmos 1238 Rocket 3.6 22:16:10 10° N 22:18:32 42° N 22:18:32 42° N
Cosmos 2297 3.5 22:19:07 42° S 22:21:06 81° ESE 22:26:50 10° NNE
Cosmos 1954 Rocket 4.0 22:17:56 10° N 22:23:04 65° ENE 22:23:04 65° ENE
Okean 2 Rocket 3.1 22:25:23 75° WNW 22:25:23 75° WNW 22:29:40 10° N
Centaur AC-125 3.9 22:00:40 10° WSW 22:28:17 69° S 22:29:44 54° ESE
OAO 3 Rocket 3.9 22:24:12 10° W 22:29:03 53° NNW 22:30:20 41° NNE
COS B Rocket 4.4 22:26:01 10° NNW 22:29:13 39° WNW 22:29:13 39° WNW
Okean 3 4.1 22:29:08 10° N 22:32:25 52° NNW 22:32:25 52° NNW
Cosmos 2218 Rocket 3.9 22:33:57 65° ESE 22:34:07 66° E 22:40:28 10° NNE
Cosmos 1606 4.3 22:34:28 10° NNW 22:37:46 33° W 22:37:46 33° W
Nadezhda 3 Rocket 4.5 22:34:51 10° NNW 22:41:04 58° W 22:43:14 39° SSW
Meteor 1-27 Rocket 4.5 22:37:00 10° NNW 22:42:15 46° W 22:43:37 38° SW
SL-08 R/B 4.4 22:44:15 78° ESE 22:44:19 78° E 22:50:47 10° N
Meteosat 1 Rocket2 4.4 22:39:00 10° W 22:45:25 88° N 22:47:26 57° E
MetOp-B 4.2 22:46:20 74° W 22:46:20 74° W 22:51:29 10° NNW
Envisat 4.1 22:46:05 33° WSW 22:46:59 36° W 22:51:38 10° NNW
Cosmos 1959 Rocket 4.3 22:50:04 88° NNW 22:50:04 88° NNW 22:56:08 10° N
ARGOS 3.8 23:05:13 52° NNW 23:05:13 52° NNW 23:09:14 10° NNW
Atlas Centaur 2 4.1 23:00:32 10° WNW 23:00:49 12° WNW 23:00:49 12° WNW
H-2A R/B 3.5 23:13:15 32° NNE 23:13:15 32° NNE 23:16:12 10° N
Timation 2 Rocket 4.5 23:14:50 10° NNW 23:19:21 53° NW 23:19:21 53° NW
USA 234 3.7 23:21:14 10° NNE 23:27:34 56° NW 23:30:49 29° WSW
Cosmos 1833 Rocket 4.2 23:30:46 10° NNW 23:33:42 32° N 23:33:42 32° N
Terra 4.3 23:52:21 19° NNW 23:52:21 19° NNW 23:53:40 10° NNW
CZ-3C R/B 4.0 23:43:48 10° WSW 23:50:58 25° WSW 23:50:58 25° WSW
